RH
59 62 66 69 70 69 66 63 62 61 60 59 58 57 57 58 58 59 58 58 58 56 56 56 54 54 52 51 50 48 47 46 44 42 40 37 36 34 34 34 36 43 44 38 34 33 32 31 30 28 26 25 24 25 27 29 29 30 30 30 29 25 22
64 62 62 63 67 71 71 70 66 63 61 60 59 58 57 57 57 58 58 57 58 57 56 56 56 55 54 54 53 51 50 48 46 45 43 40 39 37 36 36 35 40 45 43 37 34 34 32 31 30 28 27 26 25 26 29 30 31 32 30 28 25 21
72 71 70 67 66 67 70 73 73 71 68 63 60 59 58 58 57 57 57 57 58 57 57 57 56 56 56 56 56 54 52 52 50 49 46 44 43 40 39 38 37 39 44 46 43 38 35 34 32 31 30 29 29 27 26 28 30 30 30 29 27 25 20
71 73 74 74 74 72 71 71 73 75 76 74 70 65 61 60 59 58 57 57 57 57 58 58 58 57 57 58 58 57 55 55 55 53 51 49 48 45 43 42 41 40 42 46 47 43 39 37 34 32 31 31 29 27 27 27 30 34 33 30 27 26 23
70 71 73 75 78 79 78 77 75 73 74 77 78 77 72 68 63 62 61 59 59 59 59 60 60 59 59 61 61 60 59 59 58 57 56 54 53 51 49 47 46 44 44 47 50 49 46 41 38 35 31 31 29 28 28 27 32 40 40 35 30 27 26
72 72 75 76 78 79 81 83 82 80 78 76 76 77 78 78 74 70 66 64 62 62 61 62 61 60 61 63 63 63 63 63 62 61 61 59 58 57 55 54 53 51 51 52 53 54 54 50 44 38 34 31 29 29 30 29 35 45 45 39 34 29 27
75 77 80 79 79 79 81 81 83 85 85 83 81 80 79 80 80 79 76 72 69 66 65 64 63 63 63 65 65 65 65 66 66 66 65 64 63 62 62 62 60 59 59 60 60 60 61 60 54 47 41 36 31 29 30 29 38 51 52 45 40 33 30
81 81 82 81 81 81 80 81 81 81 83 87 91 92 91 88 87 86 84 82 79 75 72 70 68 67 66 66 67 66 67 68 69 70 70 69 69 69 70 69 69 69 68 67 67 65 66 68 66 59 52 45 38 34 35 35 38 46 47 45 44 39 34
82 83 82 81 82 81 80 81 80 79 85 94 98 99 100 99 96 94 93 92 89 87 84 80 76 74 71 71 70 69 69 69 70 72 74 73 73 75 76 76 74 74 73 72 72 70 70 74 77 73 64 56 48 42 39 38 37 40 42 43 45 44 41
80 81 82 82 82 80 81 80 77 81 92 100 101 100 100 100 100 99 98 98 98 96 95 91 87 83 80 78 77 75 74 74 74 75 75 75 76 77 78 80 79 77 76 75 75 75 74 76 80 80 74 66 59 50 44 41 41 45 48 50 53 53 51
80 80 81 84 84 81 80 78 79 89 99 101 100 100 100 100 100 100 100 100 101 100 100 99 96 94 90 86 85 83 82 81 81 81 80 78 79 79 79 81 82 81 79 78 77 77 76 76 77 78 77 75 68 58 52 49 48 49 52 57 61 61 57
82 82 83 85 83 81 81 79 84 96 101 100 99 98 99 100 99 100 100 99 98 98 99 100 100 99 98 96 94 92 89 89 87 87 87 85 83 83 82 81 81 80 80 80 80 79 78 78 77 76 76 77 74 65 57 55 54 54 57 62 64 62 60
78 78 81 81 78 78 76 74 85 100 101 99 100 98 97 95 91 92 94 93 93 92 93 97 100 100 99 98 99 99 97 95 94 92 92 92 91 90 88 86 85 82 79 79 81 81 80 78 77 77 77 77 77 73 65 63 62 62 63 67 67 64 62
70 72 74 75 72 74 71 67 79 99 102 98 99 100 96 87 81 82 86 87 88 88 88 91 96 99 100 99 99 100 100 99 98 98 97 98 98 97 95 93 92 91 87 84 83 83 81 79 78 78 77 77 78 77 73 71 70 69 69 68 67 66 64
60 62 63 65 65 65 66 64 69 89 102 99 96 101 98 88 81 80 80 82 84 85 85 86 89 92 95 97 98 99 100 100 100 100 100 100 100 100 100 100 97 96 95 93 91 88 84 82 81 79 79 80 81 79 76 73 72 72 72 72 74 75 74
54 57 55 52 53 54 56 55 53 70 97 102 97 100 101 94 88 82 77 77 76 77 82 83 84 87 88 89 90 93 98 100 99 100 101 100 101 100 100 101 99 97 98 97 96 94 91 88 86 84 83 82 83 81 79 80 81 81 81 83 85 84 82
53 54 50 47 55 63 65 60 53 63 92 104 99 99 101 99 95 85 78 78 77 81 88 85 80 85 88 88 86 89 98 102 99 100 101 99 100 101 100 100 98 98 100 99 94 91 91 91 91 92 93 91 89 86 84 88 91 89 89 91 87 82 81
51 47 49 59 75 84 83 75 62 65 90 104 100 99 101 100 98 90 84 88 92 94 94 85 77 78 82 90 96 96 98 101 99 100 102 100 100 101 101 99 97 98 99 98 94 91 91 92 91 93 98 99 97 93 90 90 89 88 90 91 85 79 79
51 47 57 75 88 90 88 80 65 66 91 105 100 100 102 100 99 96 93 97 101 98 90 82 76 71 69 82 98 101 100 101 101 100 101 100 100 101 99 95 94 95 96 96 97 95 95 96 96 96 98 100 100 100 96 91 86 86 89 89 85 80 79
63 66 75 84 88 86 83 79 68 69 90 104 100 100 102 100 99 99 99 100 99 94 87 82 80 77 69 70 81 91 95 98 98 98 99 100 100 101 98 93 93 94 94 94 95 93 93 95 97 99 101 100 99 101 99 95 90 89 88 86 84 83 80
80 84 85 84 82 80 77 78 74 70 80 98 103 100 100 102 100 98 100 102 97 91 90 87 86 83 76 72 80 90 93 91 91 95 98 99 100 100 98 96 97 98 97 96 97 95 95 96 97 98 101 100 100 100 100 99 96 92 89 87 84 84 82
89 89 87 83 81 80 77 76 75 71 73 88 101 102 99 101 101 99 101 102 99 97 98 96 91 88 86 88 93 99 100 96 95 97 97 98 101 101 97 94 95 99 100 100 100 100 99 100 100 100 100 100 100 100 100 101 100 95 91 87 84 83 82
93 93 91 86 83 83 79 74 75 76 72 76 92 103 102 99 101 102 101 100 100 102 102 99 95 94 97 99 99 101 101 97 93 95 98 99 97 93 87 83 84 92 100 101 100 101 101 100 100 100 100 100 100 100 99 100 101 98 93 88 86 84 82
96 99 97 92 86 84 79 75 77 80 73 68 81 99 103 100 101 102 99 99 101 101 98 97 101 103 102 101 101 100 95 84 78 84 91 89 83 79 79 78 77 84 93 98 100 100 100 100 100 100 100 98 97 97 98 99 100 100 96 91 88 86 86
98 101 100 95 91 86 79 78 84 84 74 69 80 95 102 101 100 101 100 98 98 94 87 89 97 97 90 86 86 88 86 80 78 81 84 82 79 79 80 81 83 86 89 90 93 97 99 100 100 99 99 97 96 98 99 100 100 101 99 97 94 91 91
101 102 99 96 95 89 81 85 92 84 73 76 88 98 100 97 98 102 100 92 89 86 79 77 79 76 73 72 72 76 80 81 80 79 79 79 79 81 81 83 89 96 97 93 91 91 94 97 99 100 99 98 100 102 101 100 100 100 100 101 100 99 99
102 102 99 99 99 93 88 93 96 85 78 89 99 100 99 98 99 103 99 92 89 82 73 70 69 68 71 72 71 72 75 76 78 79 79 79 79 80 81 84 90 98 101 101 100 98 96 96 98 100 101 101 102 102 101 100 101 100 100 100 100 101 102
102 101 100 99 100 99 97 99 99 93 93 100 100 98 100 100 100 102 99 94 87 73 63 65 68 69 72 73 73 76 77 77 80 80 79 81 81 80 81 81 82 87 92 96 101 103 101 99 98 98 99 101 102 102 101 100 101 101 100 100 100 100 100
101 101 101 98 97 100 101 101 100 99 100 101 98 98 101 100 101 102 93 79 70 63 60 64 69 73 77 79 83 89 89 87 88 85 82 83 80 79 84 82 78 86 93 93 96 103 103 101 100 99 98 100 101 100 100 100 102 102 102 101 101 100 98
100 101 102 98 95 98 101 101 100 100 101 101 99 100 101 99 101 102 85 64 58 62 67 73 81 88 93 93 96 100 99 98 98 94 93 91 84 84 93 89 80 87 92 88 92 102 103 101 102 101 100 101 100 100 100 101 102 102 102 103 103 100 97
99 100 101 99 98 100 100 100 100 100 101 101 99 101 102 100 101 102 86 64 57 66 78 90 99 103 103 102 103 104 102 102 103 100 101 100 93 92 98 94 87 90 90 88 95 103 100 99 101 101 99 100 100 100 100 101 102 102 101 102 101 100 99
100 101 101 100 100 100 100 100 100 100 100 101 100 99 98 98 101 99 81 62 61 74 88 97 104 107 105 104 107 107 104 104 106 105 104 104 102 101 101 100 97 93 90 93 100 102 99 99 101 100 100 100 100 101 100 100 101 101 101 102 101 99 98
96 94 96 100 100 99 100 100 99 100 99 99 100 100 100 103 102 91 73 65 70 81 87 89 94 100 101 100 103 105 103 103 106 105 104 106 106 102 97 96 97 95 94 99 102 99 99 101 100 99 100 100 100 101 100 100 101 101 100 101 101 100 99
82 76 82 93 97 98 101 99 98 101 101 98 100 101 96 91 83 72 68 71 74 78 82 82 84 88 89 90 92 95 97 101 103 103 105 107 104 94 84 81 85 88 91 96 99 99 100 101 100 100 101 99 99 100 97 97 100 101 100 100 100 100 100
76 70 75 84 89 95 101 98 94 98 100 100 100 91 74 66 66 67 71 75 73 73 76 78 78 81 82 83 86 88 91 96 98 100 105 109 107 98 85 77 81 84 79 76 84 95 102 100 96 97 100 100 100 100 97 94 95 96 99 101 100 99 98
74 68 70 78 84 93 99 94 89 95 101 103 99 84 66 67 78 82 80 80 77 73 72 73 76 80 80 81 84 87 89 93 94 96 101 105 107 105 94 86 89 90 81 72 75 87 97 98 93 90 95 99 101 100 99 97 94 93 97 101 100 98 97
Wind_Speed
14 13 14 15 17 20 22 24 26 28 29 31 34 36 36 36 35 36 39 39 39 39 37 37 38 40 41 38 36 38 39 40 40 38 38 39 38 39 38 36 28 18 13 15 18 21 22 24 29 32 35 39 41 41 41 42 43 44 44 44 44 43 41
16 16 15 14 14 15 17 20 22 24 27 29 32 33 34 34 34 35 38 37 37 38 36 36 38 40 40 36 35 38 38 38 38 36 37 39 38 39 39 37 35 26 17 15 18 22 22 23 27 32 34 37 40 41 41 42 43 43 43 45 46 45 43
18 17 17 16 15 14 14 15 17 20 23 26 29 31 32 33 33 34 36 36 36 36 35 34 37 39 38 34 34 38 39 38 37 35 36 38 37 39 40 38 37 33 25 19 17 21 25 25 26 31 33 35 38 39 40 41 43 43 44 45 45 45 44
18 18 18 17 17 16 15 14 15 16 18 22 25 29 31 31 32 33 34 35 35 35 34 34 36 39 37 33 34 38 39 37 36 35 35 36 36 38 39 38 36 36 34 26 18 20 25 27 28 30 33 34 35 36 38 40 40 41 42 43 44 44 43
18 18 17 17 17 16 16 15 15 15 16 17 20 23 27 29 30 32 33 34 35 35 35 34 36 39 36 33 34 37 37 36 35 35 35 36 36 36 37 36 35 36 37 31 24 21 22 25 28 29 31 33 34 34 34 35 37 38 39 40 41 41 41
18 17 16 16 16 16 16 15 15 15 15 15 16 18 21 24 27 29 31 33 34 35 35 35 37 38 36 33 34 37 37 35 35 35 35 36 37 35 34 33 33 34 33 31 30 27 22 23 27 28 28 31 34 34 33 33 33 34 36 37 38 39 38
18 16 15 15 15 15 15 15 14 14 14 14 15 15 17 19 21 24 27 30 32 33 34 35 36 37 36 35 35 37 38 36 34 35 36 37 37 35 33 32 31 31 30 29 29 28 25 24 26 28 28 29 31 34 34 35 33 29 31 35 37 38 38
18 17 16 15 15 15 14 14 14 14 13 13 14 14 15 17 18 20 22 25 28 30 31 33 34 35 36 36 36 38 38 37 35 34 34 36 36 34 32 31 30 29 28 28 28 26 26 25 25 27 28 25 26 28 28 31 35 34 34 36 37 38 39
17 17 17 16 16 15 14 14 13 13 13 14 15 15 15 16 16 17 19 21 23 25 27 29 31 32 34 35 35 36 37 38 37 35 34 34 35 33 32 31 30 28 28 27 25 24 23 22 23 26 27 24 26 30 30 30 34 35 36 38 38 39 40
17 18 17 17 17 16 16 15 14 13 14 15 15 15 15 16 16 16 17 18 20 22 23 25 26 28 30 31 32 34 36 37 37 37 37 36 35 33 33 32 29 29 29 26 22 21 21 19 19 25 30 30 32 36 35 32 32 31 30 31 30 31 37
17 17 17 17 17 16 16 15 13 14 16 15 14 15 15 15 15 14 14 14 15 17 19 21 23 24 26 27 29 30 32 33 35 36 38 39 38 36 35 35 32 30 30 28 23 23 24 21 21 25 29 33 35 36 36 34 33 31 27 24 20 18 25
16 15 15 15 15 14 14 12 11 14 16 15 14 15 13 12 12 12 12 13 14 15 16 17 19 21 23 24 25 26 28 29 31 33 35 37 39 38 38 39 38 35 33 30 27 25 25 26 27 27 27 31 34 35 35 33 31 32 29 24 20 17 20
15 14 13 14 14 14 13 12 11 14 16 15 15 14 13 13 14 13 13 14 14 15 15 16 17 18 19 21 22 24 25 26 28 29 31 33 35 38 39 40 41 40 38 37 33 29 30 32 31 28 28 33 34 33 33 31 29 31 30 26 25 25 24
16 15 14 14 15 15 15 14 14 15 16 15 15 14 14 16 15 14 14 14 14 14 15 15 16 16 17 18 19 20 22 24 25 26 27 29 31 34 37 39 40 41 41 41 37 34 35 36 34 33 33 33 34 34 34 33 31 31 31 32 33 32 30
17 16 16 15 16 16 16 16 15 16 16 16 16 15 16 17 16 15 15 15 15 15 15 15 16 16 17 17 17 17 18 19 22 24 25 26 27 29 32 34 37 40 41 41 39 38 38 37 35 36 35 33 34 38 39 38 36 36 35 35 32 27 25
18 17 17 16 16 16 16 16 15 15 16 17 16 16 17 17 17 18 18 17 17 17 17 17 17 17 18 18 18 17 16 17 18 21 23 24 25 26 27 30 34 36 37 38 39 39 40 39 37 36 36 35 35 37 39 35 31 31 30 25 19 16 20
18 17 16 16 15 14 15 16 15 15 17 17 17 16 16 16 17 18 18 18 18 17 16 16 17 17 19 19 19 18 17 16 16 18 21 23 23 23 25 27 30 30 30 33 37 38 39 40 39 36 34 34 35 38 37 31 25 26 25 19 12 11 16
17 16 14 13 13 14 15 15 15 15 17 18 17 17 16 16 16 17 18 18 16 14 15 17 18 18 18 19 19 18 18 18 17 17 19 21 22 22 24 26 26 25 26 29 31 33 35 36 37 36 34 32 33 36 37 35 31 29 27 21 15 13 13
15 15 13 13 13 13 14 15 15 16 17 18 18 17 17 15 15 17 18 15 12 14 17 19 20 19 18 18 19 19 19 19 18 18 19 19 19 22 25 26 25 24 26 28 28 29 31 32 31 31 33 33 33 34 37 41 38 32 30 26 21 18 12
12 13 13 13 13 13 14 16 17 17 18 19 19 19 17 15 15 16 15 12 13 16 19 20 19 19 19 19 20 20 20 20 19 20 20 19 17 19 23 25 25 26 27 26 27 29 30 31 30 27 27 29 32 34 36 40 40 35 34 31 25 22 18
12 14 13 13 12 13 15 17 18 20 20 20 19 19 18 16 15 15 13 13 17 19 19 19 19 19 19 19 19 20 20 19 19 19 18 16 15 14 15 17 19 24 27 27 28 28 28 28 27 26 24 23 27 33 35 37 38 37 37 36 32 27 23
14 15 13 12 13 14 16 18 19 20 20 20 19 20 19 17 16 16 15 15 17 17 17 18 19 19 20 19 19 19 18 18 18 18 17 16 18 19 17 17 16 15 18 24 26 25 24 24 23 24 23 21 23 29 33 34 36 38 39 40 40 36 31
16 16 13 13 15 16 18 20 20 18 18 19 20 20 19 18 17 17 15 14 14 14 16 18 19 20 20 19 19 19 19 20 20 19 19 20 21 21 20 20 19 16 13 15 19 20 21 21 21 22 22 22 24 27 29 32 34 38 40 40 41 41 39
17 15 13 15 17 19 21 21 19 18 19 20 20 20 20 19 17 15 13 12 13 14 16 17 18 19 19 19 19 19 20 21 21 20 20 21 23 23 21 19 17 15 13 12 13 15 16 17 17 18 19 23 27 28 30 32 34 37 41 42 40 41 39
18 14 11 14 17 20 23 21 18 19 21 21 22 21 19 17 14 12 13 14 15 15 17 18 19 20 21 21 20 20 20 19 19 19 19 19 21 21 20 18 14 12 10 10 11 12 13 13 14 17 21 25 26 26 27 29 29 30 35 38 37 37 35
18 12 9 13 16 18 21 19 18 20 22 23 24 21 15 14 14 14 16 18 17 18 20 22 23 23 22 21 20 19 18 17 17 17 17 17 17 17 18 17 15 11 9 9 10 11 12 12 11 15 21 24 23 23 23 23 23 24 26 30 32 30 29
18 10 8 13 16 17 18 16 16 20 23 24 23 18 14 15 15 16 18 20 19 21 23 22 21 19 17 16 16 15 15 15 16 16 17 17 17 17 16 16 14 11 9 9 10 11 12 13 12 12 16 20 21 22 23 23 23 22 23 26 29 28 27
16 9 9 13 16 16 15 13 14 19 21 21 20 16 15 16 16 16 20 21 20 21 20 17 16 16 15 16 16 15 16 17 17 18 19 18 18 18 17 17 16 14 13 13 12 11 11 12 13 13 14 17 19 19 21 22 23 23 23 23 25 24 23
12 11 12 13 15 15 14 13 14 17 19 19 17 16 17 17 16 18 21 20 18 18 17 16 18 19 20 21 20 19 19 20 19 20 21 20 21 21 20 20 20 19 18 18 16 13 11 11 11 12 13 15 17 18 20 21 23 24 22 21 22 23 22
11 12 12 12 13 13 12 12 15 17 18 17 16 17 18 18 17 18 20 19 17 16 17 19 20 20 20 21 19 16 16 17 18 18 19 20 22 22 20 21 22 21 20 20 18 14 13 12 11 12 12 12 14 17 18 21 25 24 21 21 22 22 22
11 12 12 12 12 12 11 12 15 17 17 16 16 18 19 18 17 18 19 18 16 17 20 21 20 19 19 19 17 15 15 16 16 16 17 18 20 20 19 20 22 21 21 20 17 15 14 13 12 12 12 13 13 13 14 20 24 22 20 22 22 19 18
11 12 12 12 12 12 12 13 15 16 16 16 16 18 19 17 16 17 18 17 17 19 21 20 18 18 18 18 17 17 16 17 17 17 17 16 17 18 19 20 20 20 20 18 16 15 15 14 14 14 13 13 14 14 13 16 21 23 23 23 20 17 19
11 12 12 11 12 12 13 14 14 15 16 16 16 18 17 15 14 15 17 18 19 21 21 20 19 19 19 19 19 18 18 18 18 18 18 17 17 18 20 21 20 18 17 16 16 16 16 15 15 15 15 15 14 14 14 13 16 20 24 23 17 14 17
12 12 11 10 11 12 13 14 15 15 15 15 16 17 16 14 13 14 17 19 20 20 20 19 20 19 20 20 20 20 20 20 19 18 18 18 18 19 20 21 20 20 19 18 18 17 16 15 15 16 15 16 15 15 14 14 14 14 16 17 14 12 14
13 12 10 9 10 12 12 14 15 15 14 14 15 16 16 16 16 18 19 20 20 20 19 19 19 19 20 20 20 21 21 21 20 19 19 18 18 19 20 20 20 19 20 20 20 19 16 16 17 17 16 16 16 16 15 14 14 13 12 13 13 13 13
12 11 9 9 10 12 12 14 14 14 13 13 13 15 16 17 18 18 18 19 19 19 19 19 18 19 19 20 20 20 21 20 20 20 19 18 18 19 19 19 18 18 19 20 19 19 18 18 19 20 19 17 16 16 16 15 15 15 14 13 13 14 14
Wind_Direction
335 327 314 303 295 290 284 278 273 267 262 258 255 252 250 248 245 243 245 244 243 243 241 240 241 242 243 240 238 239 239 238 237 235 234 234 233 232 231 229 229 236 256 249 236 239 238 233 231 231 231 230 231 230 228 228 231 230 226 225 225 225 223
336 334 329 321 312 302 294 287 281 275 267 261 257 255 252 249 246 245 246 245 244 243 241 240 242 243 244 240 238 240 239 238 237 233 233 233 231 232 232 228 227 231 245 251 237 232 235 233 227 227 230 228 228 229 227 226 227 227 224 224 225 224 223
333 331 328 326 323 317 308 299 290 283 274 267 262 258 255 253 249 247 246 245 245 245 242 241 242 244 244 240 238 240 240 238 237 233 233 234 231 231 233 230 227 228 236 247 243 233 233 231 225 226 230 230 229 230 228 224 225 225 223 223 224 224 224
334 331 328 325 324 321 317 311 302 292 282 275 270 264 260 257 253 250 249 248 248 247 245 242 243 245 244 239 237 239 240 238 236 234 233 235 233 232 233 232 228 227 232 240 245 239 233 232 230 228 229 229 228 227 225 224 223 224 222 222 222 222 224
337 334 332 329 327 322 319 315 309 301 292 284 278 272 267 263 258 255 253 252 251 250 248 245 245 247 245 239 236 239 239 237 236 234 233 234 234 233 233 232 229 228 231 236 241 241 236 232 231 230 228 226 222 219 220 221 220 220 219 219 219 220 222
340 338 335 331 329 325 320 316 311 306 300 293 286 280 275 271 266 262 259 257 256 254 251 249 248 249 247 241 238 239 240 238 236 235 233 233 234 233 232 230 229 228 229 232 237 240 236 229 226 223 222 223 219 215 213 213 214 218 217 216 216 218 219
343 341 338 333 331 329 325 322 317 312 307 302 297 292 287 282 278 273 268 264 261 259 257 254 252 252 250 245 242 242 242 241 238 236 234 234 234 233 230 229 228 228 227 228 234 237 234 228 225 221 220 221 218 216 215 210 205 206 212 214 215 217 217
347 344 342 338 334 332 329 327 326 322 319 316 314 311 305 299 293 286 281 275 270 266 263 260 257 256 254 251 248 247 246 243 240 237 235 235 235 232 229 228 227 226 225 226 230 233 231 226 222 218 218 217 210 208 211 210 203 202 207 211 214 217 218
350 348 345 342 339 337 336 333 331 332 332 327 322 319 313 309 305 298 292 288 283 278 272 268 264 261 259 257 254 251 250 248 244 240 237 236 235 231 228 227 226 224 223 223 227 229 226 220 217 214 210 205 202 203 206 207 207 208 210 211 213 217 220
351 351 349 347 344 342 341 339 338 340 337 330 323 319 316 313 310 306 302 298 293 290 285 279 273 269 266 263 260 257 254 252 249 245 241 240 236 231 226 224 223 223 222 220 221 223 219 215 217 216 210 207 209 210 208 204 204 208 211 210 212 218 221
353 352 351 350 348 347 344 343 346 345 338 332 329 325 319 315 314 315 315 312 307 302 298 292 286 280 275 270 266 262 259 256 253 249 246 244 241 235 230 226 222 222 221 220 221 222 219 217 222 221 214 213 214 212 207 203 202 204 205 202 206 217 223
354 353 354 351 349 351 349 348 351 348 340 337 337 333 328 328 333 335 332 330 326 319 314 310 304 295 287 281 275 270 266 262 259 254 250 247 244 240 236 232 229 226 223 221 220 221 220 220 224 225 218 214 213 210 207 205 205 205 203 199 202 210 216
352 353 354 353 352 352 350 352 355 348 343 342 343 344 346 346 346 345 339 336 332 326 323 322 318 312 303 296 289 282 276 270 265 260 255 251 247 243 240 237 234 232 230 226 222 222 224 224 223 224 222 218 213 207 204 206 208 209 206 204 209 215 216
350 351 351 351 351 349 347 351 353 348 344 343 343 348 352 348 344 342 340 339 337 335 332 329 326 322 314 308 303 295 287 279 271 266 260 254 249 244 241 239 236 235 234 232 228 226 230 230 227 226 227 223 215 208 205 206 209 210 210 212 218 223 222
348 349 349 350 350 346 344 347 349 347 345 342 339 343 349 348 342 339 338 337 337 338 337 336 335 332 326 321 316 307 299 289 278 271 264 257 252 248 244 241 239 237 235 234 232 232 234 235 233 231 230 226 218 216 216 216 216 216 216 216 220 223 222
348 350 350 351 351 349 347 347 349 348 346 343 338 338 345 349 344 341 341 339 337 338 337 337 337 336 333 329 325 320 312 301 287 276 268 261 256 253 249 246 245 242 239 237 235 235 237 238 237 235 234 230 224 222 220 217 218 218 214 211 212 214 216
345 350 353 354 357 358 354 351 353 354 350 347 343 342 347 352 349 345 343 340 340 342 342 339 336 334 332 329 328 329 323 312 297 284 274 266 260 257 254 252 251 248 244 242 241 241 240 240 239 236 233 230 228 226 219 207 206 211 204 196 200 209 210
343 350 359 3 5 6 1 356 359 1 355 350 349 347 347 350 350 347 343 338 341 346 342 336 332 329 329 328 329 329 324 318 311 299 286 275 265 259 256 256 256 253 250 247 247 247 245 244 242 237 232 227 224 224 218 209 209 209 198 192 203 209 200
346 354 5 9 8 11 10 4 4 5 358 352 351 349 345 346 346 343 338 337 344 347 341 335 331 328 325 324 324 323 320 320 318 311 302 290 273 260 257 259 258 254 252 249 247 248 247 247 247 241 235 229 221 216 217 217 216 208 197 198 206 203 188
356 360 5 10 13 18 18 9 3 2 357 351 349 347 345 344 342 337 337 348 355 348 342 338 336 333 329 325 321 319 317 316 314 311 309 304 289 270 265 267 261 252 249 248 246 248 247 246 247 244 238 232 222 214 214 218 217 211 205 206 208 202 198
7 2 4 15 21 17 14 8 359 354 352 349 349 347 345 344 341 335 341 356 356 348 344 342 339 336 335 332 325 318 314 311 310 311 313 317 321 316 305 296 277 258 249 245 243 246 246 244 245 244 240 234 225 217 213 213 214 213 212 213 212 207 204
7 1 2 15 19 10 5 2 357 353 352 351 349 347 345 344 338 335 345 357 354 347 345 345 342 340 340 336 326 319 317 318 321 324 324 328 337 340 333 325 318 296 264 246 240 239 239 239 238 238 237 234 226 219 215 211 210 213 216 219 220 218 212
5 0 0 5 6 3 0 358 357 357 357 356 351 346 344 342 337 338 347 356 355 351 350 349 346 343 339 333 328 327 329 328 327 328 328 325 327 329 324 319 321 325 310 270 249 238 233 232 232 231 230 230 227 222 216 213 211 212 216 220 224 224 222
0 358 1 359 356 356 357 357 357 357 357 358 355 348 341 341 344 349 353 354 356 356 353 351 348 344 340 338 335 333 329 322 319 321 322 319 317 319 324 326 321 321 324 308 278 254 240 234 232 229 227 227 229 227 222 218 215 214 217 220 222 223 222
355 353 0 359 354 354 354 355 356 354 353 359 359 352 346 347 352 355 354 354 355 351 344 341 342 340 336 334 332 330 326 323 323 325 325 323 321 321 327 334 331 322 315 305 292 278 262 251 243 239 238 236 233 230 226 221 217 215 215 217 220 222 221
347 346 1 0 356 355 354 355 356 352 353 358 357 353 357 360 351 343 346 350 347 339 334 333 334 333 330 328 327 328 331 333 331 330 329 331 334 335 336 340 342 338 322 300 293 289 280 274 265 252 248 246 240 233 229 224 219 215 212 211 213 215 216
340 347 10 1 357 358 355 355 357 353 353 353 349 351 9 8 351 345 351 353 347 340 338 337 335 334 332 330 329 330 335 340 341 340 341 343 345 348 350 351 349 344 336 324 310 297 290 288 285 272 257 249 242 236 233 227 221 217 213 209 208 208 209
337 2 20 4 360 358 352 354 359 354 348 343 341 356 16 9 357 360 3 359 351 346 344 345 348 352 356 357 359 357 356 357 357 356 356 355 353 353 352 352 352 350 348 346 335 320 309 298 288 278 263 250 243 239 235 230 223 218 216 211 206 206 209
343 11 14 4 3 357 349 353 357 350 343 339 344 4 14 6 2 8 6 0 355 353 356 5 11 14 16 16 16 15 11 9 6 3 2 1 359 358 356 354 356 356 354 352 347 335 325 314 299 287 273 256 243 238 238 233 224 220 218 211 205 208 213
355 8 7 4 5 360 353 355 353 347 344 346 353 6 9 3 4 9 7 2 2 8 18 25 26 24 23 20 18 16 11 8 7 4 2 2 2 1 0 358 358 357 352 349 347 341 332 324 313 302 294 279 256 242 236 232 228 224 217 208 205 210 214
2 6 9 10 6 3 2 1 356 352 352 356 3 10 10 5 6 13 13 10 13 24 31 31 27 24 21 18 17 15 8 5 6 4 0 360 0 0 360 357 355 354 351 348 344 340 336 332 324 313 304 297 285 267 246 233 229 225 217 211 209 209 211
10 9 12 15 12 10 9 7 3 1 1 5 9 12 13 11 12 18 18 16 24 34 35 30 25 21 17 13 11 9 5 3 4 3 0 360 359 358 358 357 354 352 352 350 345 341 339 335 330 323 314 306 299 293 278 249 230 220 215 214 212 211 213
16 12 13 17 17 17 15 12 10 9 8 9 11 12 13 14 17 21 20 21 30 34 30 25 22 18 14 11 8 5 3 2 1 1 1 2 1 360 359 359 359 359 357 353 348 347 343 338 334 330 323 316 305 296 289 273 247 229 220 216 211 208 211
17 16 17 19 20 21 18 16 15 13 10 9 10 10 10 8 13 20 23 25 29 29 23 19 16 12 9 8 7 4 2 1 359 358 358 359 0 1 0 0 1 2 1 358 356 355 351 345 344 340 332 325 316 304 293 282 267 247 229 220 214 207 206
12 17 21 22 23 24 21 17 15 13 11 11 11 8 5 8 16 20 20 20 22 21 17 13 10 6 4 3 2 1 0 358 357 355 353 353 354 355 357 359 360 358 358 357 358 358 355 352 351 349 342 334 326 316 305 291 277 265 250 235 226 219 212
6 14 23 26 23 22 19 15 13 12 12 14 15 11 11 16 21 19 15 15 16 13 11 10 8 4 2 0 358 357 356 354 353 352 349 348 347 347 350 354 355 354 355 355 354 354 354 353 353 352 349 344 335 325 317 306 291 276 265 253 244 237 227